TimeEST,TemperatureF,Dew PointF,Humidity,Sea Level PressureIn,VisibilityMPH,Wind Direction,Wind SpeedMPH,Gust SpeedMPH,PrecipitationIn,Events,Conditions,WindDirDegrees,DateUTC
12:53 AM,51.1,45.0,80,30.19,10.0,Calm,Calm,-,N/A,,Clear,0,2013-03-09 05:53:00
1:53 AM,48.9,44.1,83,30.17,10.0,NNW,4.6,-,N/A,,Clear,340,2013-03-09 06:53:00
2:53 AM,50.0,45.0,83,30.14,10.0,Calm,Calm,-,N/A,,Clear,0,2013-03-09 07:53:00
3:53 AM,48.9,45.0,86,30.14,10.0,Calm,Calm,-,N/A,,Clear,0,2013-03-09 08:53:00
4:53 AM,48.9,46.0,90,30.14,9.0,West,5.8,-,N/A,,Clear,280,2013-03-09 09:53:00
5:53 AM,48.9,46.0,90,30.16,8.0,Calm,Calm,-,N/A,,Clear,0,2013-03-09 10:53:00
7:53 AM,55.9,51.1,84,30.20,10.0,Calm,Calm,-,N/A,,Clear,0,2013-03-09 12:53:00
8:53 AM,66.9,52.0,59,30.22,10.0,Calm,Calm,-,N/A,,Clear,0,2013-03-09 13:53:00
9:53 AM,71.1,51.1,49,30.22,10.0,NE,13.8,-,N/A,,Clear,50,2013-03-09 14:53:00
10:53 AM,72.0,51.1,48,30.23,10.0,NNE,11.5,-,N/A,,Clear,30,2013-03-09 15:53:00
11:53 AM,71.1,50.0,47,30.23,10.0,ENE,10.4,18.4,N/A,,Scattered Clouds,70,2013-03-09 16:53:00
12:53 PM,72.0,48.9,44,30.21,10.0,NNE,10.4,-,N/A,,Clear,20,2013-03-09 17:53:00
1:53 PM,71.1,50.0,47,30.19,10.0,NE,11.5,-,N/A,,Clear,50,2013-03-09 18:53:00
2:53 PM,72.0,50.0,46,30.18,10.0,NE,9.2,-,N/A,,Clear,50,2013-03-09 19:53:00
3:53 PM,70.0,50.0,49,30.17,10.0,NE,9.2,-,N/A,,Clear,50,2013-03-09 20:53:00
4:53 PM,69.1,48.9,49,30.17,10.0,NNE,10.4,-,N/A,,Clear,30,2013-03-09 21:53:00
5:53 PM,66.9,50.0,54,30.19,10.0,NNE,8.1,-,N/A,,Scattered Clouds,30,2013-03-09 22:53:00
7:53 PM,66.0,50.0,56,30.19,10.0,NE,6.9,-,N/A,,Clear,40,2013-03-10 00:53:00
8:53 PM,64.9,50.0,58,30.20,10.0,NE,5.8,-,N/A,,Scattered Clouds,40,2013-03-10 01:53:00
9:53 PM,64.0,51.1,63,30.21,10.0,NE,3.5,-,N/A,,Partly Cloudy,50,2013-03-10 02:53:00
10:53 PM,64.0,51.1,63,30.19,10.0,NE,3.5,-,N/A,,Mostly Cloudy,40,2013-03-10 03:53:00
11:53 PM,64.9,52.0,63,30.19,10.0,ENE,8.1,-,N/A,,Mostly Cloudy,60,2013-03-10 04:53:00